| time (UTC) | temp C | wind direction | speed KPH | gust KPH | rain 1hr cm | rain 24hr cm | rain mn cm | humidity % | barometer mb |
| 20260510094523 | 11 | 15 | 3.2 | 4.8 | 0.00 | 0.03 | 0.00 | 100 | 1011.8 |
| 20260510093522 | 12 | 12 | 3.2 | 4.8 | 0.00 | 0.03 | 0.00 | 100 | 1011.7 |
| 20260510092522 | 12 | 70 | 0.0 | 3.2 | 0.00 | 0.03 | 0.00 | 100 | 1011.8 |
| 20260510091522 | 12 | 115 | 0.0 | 3.2 | 0.00 | 0.03 | 0.00 | 100 | 1011.7 |
| 20260510090524 | 11 | 100 | 0.0 | 1.6 | 0.00 | 0.03 | 0.00 | 99 | 1011.7 |
| 20260510085522 | 11 | 0.0 | 0.0 | 0.00 | 0.03 | 0.00 | 99 | 1011.5 | |
| 20260510084523 | 12 | 0.0 | 0.0 | 0.00 | 0.03 | 0.00 | 98 | 1011.5 | |
| 20260510083543 | 12 | 341 | 0.0 | 3.2 | 0.00 | 0.03 | 0.00 | 98 | 1011.5 |
| 20260510082523 | 12 | 326 | 3.2 | 4.8 | 0.00 | 0.03 | 0.00 | 98 | 1011.3 |
| 20260510081523 | 12 | 326 | 6.4 | 6.4 | 0.00 | 0.03 | 0.00 | 98 | 1011.2 |
| 20260510080525 | 12 | 324 | 4.8 | 6.4 | 0.00 | 0.03 | 0.00 | 98 | 1011.0 |
| 20260510075523 | 12 | 334 | 4.8 | 4.8 | 0.00 | 0.03 | 0.00 | 98 | 1010.9 |
| 20260510074524 | 12 | 0.0 | 0.0 | 0.00 | 0.03 | 0.00 | 98 | 1010.8 | |
| 20260510073524 | 12 | 0.0 | 0.0 | 0.00 | 0.03 | 0.00 | 98 | 1010.8 | |
| 20260510072523 | 12 | 0.0 | 0.0 | 0.00 | 0.03 | 0.00 | 97 | 1010.8 | |
| 20260510071524 | 13 | 29 | 0.0 | 0.0 | 0.00 | 0.03 | 0.00 | 97 | 1010.6 |
| 20260510070524 | 13 | 354 | 1.6 | 3.2 | 0.00 | 0.03 | 0.00 | 97 | 1010.5 |
| 20260510065525 | 13 | 34 | 0.0 | 1.6 | 0.00 | 0.03 | 0.00 | 97 | 1010.4 |
| 20260510064525 | 13 | 0.0 | 0.0 | 0.00 | 0.03 | 0.00 | 97 | 1010.4 | |
| 20260510063524 | 13 | 39 | 0.0 | 3.2 | 0.00 | 0.03 | 0.00 | 96 | 1010.4 |
| 20260510062524 | 13 | 21 | 0.0 | 3.2 | 0.00 | 0.03 | 0.00 | 95 | 1010.4 |
| 20260510061525 | 13 | 25 | 3.2 | 4.8 | 0.00 | 0.03 | 0.00 | 95 | 1010.5 |
| 20260510060545 | 13 | 9 | 3.2 | 3.2 | 0.00 | 0.03 | 0.00 | 94 | 1010.4 |
| 20260510055525 | 13 | 44 | 3.2 | 4.8 | 0.00 | 0.03 | 0.00 | 94 | 1010.4 |
| 20260510054519 | 14 | 356 | 6.4 | 8.0 | 0.00 | 0.03 | 0.00 | 93 | 1010.4 |
| 20260510053520 | 14 | 333 | 6.4 | 9.7 | 0.00 | 0.03 | 0.00 | 93 | 1010.5 |
| 20260510052537 | 14 | 341 | 4.8 | 8.0 | 0.00 | 0.03 | 0.00 | 93 | 1010.5 |
| 20260510051517 | 14 | 354 | 4.8 | 8.0 | 0.00 | 0.03 | 0.00 | 92 | 1010.5 |
| 20260510050518 | 14 | 22 | 4.8 | 6.4 | 0.00 | 0.03 | 0.00 | 91 | 1010.4 |
| 20260510045519 | 15 | 48 | 4.8 | 6.4 | 0.00 | 0.03 | 0.00 | 91 | 1010.5 |
| 20260510044538 | 15 | 58 | 3.2 | 4.8 | 0.00 | 0.03 | 0.00 | 90 | 1010.5 |
| 20260510043538 | 15 | 23 | 4.8 | 6.4 | 0.00 | 0.03 | 0.00 | 90 | 1010.6 |
| 20260510042518 | 15 | 42 | 4.8 | 6.4 | 0.00 | 0.03 | 0.00 | 89 | 1010.6 |
| 20260510041518 | 15 | 17 | 4.8 | 8.0 | 0.00 | 0.03 | 0.00 | 89 | 1010.5 |
| 20260510040518 | 15 | 22 | 4.8 | 6.4 | 0.00 | 0.03 | 0.00 | 88 | 1010.5 |
| 20260510035518 | 15 | 17 | 3.2 | 4.8 | 0.00 | 0.03 | 0.03 | 87 | 1010.4 |
| 20260510034519 | 15 | 32 | 3.2 | 6.4 | 0.00 | 0.03 | 0.03 | 86 | 1010.3 |
| 20260510033556 | 16 | 18 | 4.8 | 6.4 | 0.00 | 0.03 | 0.03 | 85 | 1010.4 |
| 20260510032520 | 16 | 5 | 4.8 | 8.0 | 0.00 | 0.03 | 0.03 | 84 | 1010.4 |
| 20260510031519 | 16 | 22 | 4.8 | 8.0 | 0.00 | 0.03 | 0.03 | 83 | 1010.3 |
| 20260510030519 | 16 | 3 | 6.4 | 8.0 | 0.00 | 0.03 | 0.03 | 82 | 1010.3 |
| 20260510025519 | 16 | 358 | 6.4 | 9.7 | 0.00 | 0.03 | 0.03 | 81 | 1010.2 |
| 20260510024516 | 17 | 20 | 4.8 | 11.3 | 0.00 | 0.03 | 0.03 | 80 | 1010.2 |
| 20260510023536 | 17 | 11 | 6.4 | 9.7 | 0.00 | 0.03 | 0.03 | 80 | 1010.1 |
| 20260510022516 | 17 | 6 | 8.0 | 12.9 | 0.00 | 0.03 | 0.03 | 79 | 1010.0 |
| 20260510021520 | 17 | 5 | 8.0 | 11.3 | 0.00 | 0.03 | 0.03 | 77 | 1010.0 |
| 20260510020520 | 17 | 2 | 4.8 | 8.0 | 0.00 | 0.03 | 0.03 | 76 | 1009.9 |
| 20260510015537 | 18 | 353 | 6.4 | 8.0 | 0.00 | 0.03 | 0.03 | 77 | 1009.8 |
| 20260510014517 | 18 | 16 | 6.4 | 9.7 | 0.00 | 0.03 | 0.03 | 72 | 1009.7 |
| 20260510013517 | 19 | 352 | 3.2 | 4.8 | 0.00 | 0.03 | 0.03 | 70 | 1009.5 |
| 20260510012517 | 19 | 101 | 1.6 | 4.8 | 0.00 | 0.03 | 0.03 | 70 | 1009.4 |
| 20260510011519 | 19 | 130 | 4.8 | 12.9 | 0.00 | 0.03 | 0.03 | 70 | 1009.3 |
| 20260510010539 | 19 | 87 | 3.2 | 6.4 | 0.00 | 0.03 | 0.03 | 71 | 1009.2 |
| 20260510005558 | 19 | 70 | 6.4 | 9.7 | 0.00 | 0.03 | 0.03 | 72 | 1009.1 |
| 20260510004519 | 19 | 38 | 4.8 | 9.7 | 0.00 | 0.03 | 0.03 | 73 | 1009.0 |
| 20260510003518 | 19 | 19 | 6.4 | 8.0 | 0.00 | 0.03 | 0.03 | 72 | 1009.0 |
| 20260510002518 | 20 | 33 | 4.8 | 8.0 | 0.00 | 0.03 | 0.03 | 71 | 1008.8 |
| 20260510001539 | 20 | 26 | 6.4 | 11.3 | 0.00 | 0.03 | 0.03 | 69 | 1008.8 |
| 20260510000515 | 21 | 14 | 6.4 | 11.3 | 0.00 | 0.03 | 0.03 | 64 | 1008.7 |
| 20260509235518 | 22 | 136 | 0.0 | 3.2 | 0.00 | 0.03 | 0.03 | 55 | 1008.6 |
| 20260509234519 | 22 | 150 | 3.2 | 4.8 | 0.00 | 0.03 | 0.03 | 55 | 1008.5 |
| 20260509233519 | 22 | 141 | 3.2 | 4.8 | 0.00 | 0.03 | 0.03 | 55 | 1008.4 |
| 20260509232519 | 22 | 148 | 0.0 | 3.2 | 0.00 | 0.03 | 0.03 | 53 | 1008.4 |
| 20260509231516 | 22 | 153 | 3.2 | 6.4 | 0.00 | 0.03 | 0.03 | 54 | 1008.3 |
| 20260509230516 | 22 | 157 | 3.2 | 6.4 | 0.00 | 0.03 | 0.03 | 54 | 1008.4 |
| 20260509225518 | 22 | 158 | 6.4 | 12.9 | 0.00 | 0.03 | 0.03 | 54 | 1008.3 |
| 20260509224519 | 22 | 163 | 6.4 | 11.3 | 0.00 | 0.03 | 0.03 | 53 | 1008.4 |
| 20260509223541 | 22 | 162 | 11.3 | 16.1 | 0.00 | 0.03 | 0.03 | 53 | 1008.3 |
| 20260509222517 | 22 | 162 | 12.9 | 20.9 | 0.00 | 0.03 | 0.03 | 53 | 1008.4 |
| 20260509221517 | 22 | 163 | 12.9 | 20.9 | 0.00 | 0.03 | 0.03 | 53 | 1008.4 |
| 20260509220537 | 22 | 160 | 11.3 | 19.3 | 0.00 | 0.03 | 0.03 | 53 | 1008.4 |
| 20260509215518 | 22 | 159 | 14.5 | 19.3 | 0.00 | 0.03 | 0.03 | 53 | 1008.4 |
| 20260509214519 | 22 | 209 | 4.8 | 12.9 | 0.00 | 0.03 | 0.03 | 52 | 1008.4 |
| 20260509213518 | 22 | 170 | 11.3 | 20.9 | 0.00 | 0.03 | 0.03 | 52 | 1008.3 |
| 20260509212517 | 22 | 204 | 3.2 | 8.0 | 0.00 | 0.03 | 0.03 | 52 | 1008.4 |
| 20260509211519 | 22 | 167 | 9.7 | 22.5 | 0.00 | 0.03 | 0.03 | 53 | 1008.3 |
| 20260509210518 | 22 | 165 | 8.0 | 19.3 | 0.00 | 0.03 | 0.03 | 53 | 1008.2 |
| 20260509205518 | 22 | 166 | 8.0 | 17.7 | 0.00 | 0.03 | 0.03 | 53 | 1008.2 |
| 20260509204518 | 21 | 171 | 8.0 | 17.7 | 0.00 | 0.03 | 0.03 | 54 | 1008.1 |
| 20260509203518 | 21 | 166 | 14.5 | 24.1 | 0.00 | 0.03 | 0.03 | 56 | 1008.0 |
| 20260509202519 | 21 | 160 | 9.7 | 19.3 | 0.00 | 0.03 | 0.03 | 56 | 1008.1 |
| 20260509201519 | 21 | 169 | 9.7 | 20.9 | 0.00 | 0.03 | 0.03 | 56 | 1008.3 |
| 20260509200519 | 21 | 162 | 9.7 | 20.9 | 0.00 | 0.03 | 0.03 | 57 | 1008.5 |
| 20260509195516 | 21 | 170 | 6.4 | 19.3 | 0.00 | 0.03 | 0.03 | 57 | 1008.7 |
| 20260509194516 | 21 | 201 | 6.4 | 17.7 | 0.00 | 0.03 | 0.03 | 57 | 1008.8 |
| 20260509193539 | 21 | 180 | 6.4 | 20.9 | 0.00 | 0.03 | 0.03 | 57 | 1009.1 |
| 20260509192539 | 20 | 223 | 6.4 | 17.7 | 0.00 | 0.03 | 0.03 | 59 | 1009.3 |
| 20260509191540 | 20 | 191 | 6.4 | 12.9 | 0.03 | 0.03 | 0.03 | 60 | 1009.1 |
| 20260509190516 | 20 | 210 | 6.4 | 19.3 | 0.03 | 0.03 | 0.03 | 63 | 1009.1 |
| 20260509185517 | 19 | 181 | 1.6 | 8.0 | 0.03 | 0.03 | 0.03 | 65 | 1009.3 |
| 20260509184517 | 19 | 175 | 6.4 | 16.1 | 0.03 | 0.03 | 0.03 | 63 | 1009.5 |
| 20260509183517 | 19 | 172 | 6.4 | 14.5 | 0.03 | 0.03 | 0.03 | 65 | 1009.6 |
| 20260509182520 | 20 | 189 | 6.4 | 16.1 | 0.03 | 0.03 | 0.03 | 64 | 1009.8 |
| 20260509181517 | 20 | 180 | 12.9 | 27.4 | 0.00 | 0.00 | 0.00 | 56 | 1009.8 |
| 20260509180517 | 20 | 180 | 12.9 | 29.0 | 0.00 | 0.00 | 0.00 | 55 | 1009.8 |
| 20260509175518 | 20 | 185 | 11.3 | 22.5 | 0.00 | 0.00 | 0.00 | 55 | 1010.0 |
| 20260509174518 | 20 | 192 | 8.0 | 22.5 | 0.00 | 0.00 | 0.00 | 55 | 1010.1 |
| 20260509173518 | 20 | 196 | 6.4 | 20.9 | 0.00 | 0.00 | 0.00 | 55 | 1010.1 |
| 20260509172518 | 20 | 205 | 6.4 | 17.7 | 0.00 | 0.00 | 0.00 | 55 | 1010.2 |
| 20260509171539 | 20 | 181 | 12.9 | 22.5 | 0.00 | 0.00 | 0.00 | 56 | 1010.2 |
| 20260509170519 | 20 | 187 | 8.0 | 29.0 | 0.00 | 0.00 | 0.00 | 56 | 1010.3 |
| 20260509165518 | 20 | 185 | 8.0 | 20.9 | 0.00 | 0.00 | 0.00 | 57 | 1010.4 |
| 20260509164519 | 20 | 188 | 9.7 | 25.7 | 0.00 | 0.00 | 0.00 | 56 | 1010.4 |
| 20260509163520 | 19 | 201 | 6.4 | 16.1 | 0.00 | 0.00 | 0.00 | 57 | 1010.4 |
| 20260509162539 | 19 | 241 | 8.0 | 19.3 | 0.00 | 0.00 | 0.00 | 57 | 1010.5 |
| 20260509161557 | 19 | 218 | 3.2 | 12.9 | 0.00 | 0.00 | 0.00 | 59 | 1010.5 |
| 20260509160539 | 18 | 187 | 6.4 | 19.3 | 0.00 | 0.00 | 0.00 | 59 | 1010.5 |
| 20260509155519 | 18 | 234 | 4.8 | 17.7 | 0.00 | 0.00 | 0.00 | 60 | 1010.7 |
| 20260509154539 | 18 | 237 | 11.3 | 22.5 | 0.00 | 0.00 | 0.00 | 61 | 1010.8 |
| 20260509153519 | 18 | 177 | 9.7 | 25.7 | 0.00 | 0.00 | 0.00 | 60 | 1010.9 |
| 20260509152516 | 18 | 176 | 12.9 | 22.5 | 0.00 | 0.00 | 0.00 | 62 | 1010.8 |
| 20260509151517 | 17 | 176 | 9.7 | 24.1 | 0.00 | 0.00 | 0.00 | 62 | 1011.0 |
| 20260509150537 | 17 | 178 | 6.4 | 17.7 | 0.00 | 0.00 | 0.00 | 64 | 1011.1 |
| 20260509145520 | 16 | 180 | 12.9 | 22.5 | 0.00 | 0.00 | 0.00 | 65 | 1011.3 |
| 20260509144520 | 16 | 179 | 9.7 | 16.1 | 0.00 | 0.00 | 0.00 | 65 | 1011.5 |
| 20260509143517 | 16 | 243 | 6.4 | 14.5 | 0.00 | 0.00 | 0.00 | 66 | 1011.6 |
| 20260509142517 | 16 | 169 | 4.8 | 17.7 | 0.00 | 0.00 | 0.00 | 66 | 1011.7 |
| 20260509141517 | 16 | 183 | 8.0 | 20.9 | 0.00 | 0.00 | 0.00 | 66 | 1011.7 |
| 20260509140518 | 16 | 172 | 6.4 | 16.1 | 0.00 | 0.00 | 0.00 | 67 | 1011.6 |
| 20260509135518 | 16 | 179 | 6.4 | 17.7 | 0.00 | 0.00 | 0.00 | 67 | 1011.7 |
| 20260509134519 | 15 | 161 | 4.8 | 11.3 | 0.00 | 0.00 | 0.00 | 67 | 1011.7 |
| 20260509133518 | 15 | 200 | 4.8 | 14.5 | 0.00 | 0.00 | 0.00 | 67 | 1011.7 |
| 20260509132518 | 15 | 160 | 4.8 | 19.3 | 0.00 | 0.00 | 0.00 | 67 | 1011.8 |
| 20260509131518 | 15 | 188 | 6.4 | 17.7 | 0.00 | 0.00 | 0.00 | 67 | 1011.7 |
| 20260509130520 | 15 | 179 | 12.9 | 25.7 | 0.00 | 0.00 | 0.00 | 69 | 1011.6 |
| 20260509125519 | 15 | 0.0 | 0.0 | 0.00 | 0.00 | 0.00 | 69 | 1011.5 | |
| 20260509124516 | 15 | 180 | 11.3 | 22.5 | 0.00 | 0.00 | 0.00 | 68 | 1011.6 |
| 20260509123519 | 15 | 179 | 11.3 | 25.7 | 0.00 | 0.00 | 0.00 | 68 | 1011.5 |
| 20260509122519 | 15 | 182 | 9.7 | 25.7 | 0.00 | 0.00 | 0.00 | 67 | 1011.6 |
| 20260509121519 | 15 | 184 | 11.3 | 24.1 | 0.00 | 0.00 | 0.00 | 67 | 1011.6 |
| 20260509120519 | 15 | 185 | 17.7 | 27.4 | 0.00 | 0.00 | 0.00 | 67 | 1011.6 |
| 20260509115516 | 15 | 184 | 12.9 | 25.7 | 0.00 | 0.00 | 0.00 | 65 | 1011.6 |
| 20260509114536 | 15 | 183 | 11.3 | 29.0 | 0.00 | 0.00 | 0.00 | 63 | 1011.6 |
| 20260509113516 | 15 | 180 | 16.1 | 22.5 | 0.00 | 0.00 | 0.00 | 60 | 1011.4 |
| 20260509112520 | 15 | 181 | 8.0 | 17.7 | 0.00 | 0.00 | 0.00 | 59 | 1011.4 |
| 20260509111520 | 15 | 178 | 9.7 | 22.5 | 0.00 | 0.00 | 0.00 | 58 | 1011.4 |
| 20260509110517 | 15 | 179 | 6.4 | 17.7 | 0.00 | 0.00 | 0.00 | 57 | 1011.4 |
| 20260509105517 | 15 | 181 | 11.3 | 24.1 | 0.00 | 0.00 | 0.00 | 57 | 1011.3 |
| 20260509104517 | 15 | 181 | 14.5 | 24.1 | 0.00 | 0.00 | 0.00 | 57 | 1011.2 |
| 20260509103519 | 15 | 179 | 12.9 | 19.3 | 0.00 | 0.00 | 0.00 | 57 | 1011.2 |
| 20260509102519 | 15 | 176 | 11.3 | 19.3 | 0.00 | 0.00 | 0.00 | 58 | 1011.1 |
| 20260509101518 | 15 | 173 | 11.3 | 17.7 | 0.00 | 0.00 | 0.00 | 59 | 1011.1 |
| 20260509100518 | 15 | 170 | 8.0 | 14.5 | 0.00 | 0.00 | 0.00 | 59 | 1011.0 |
| 20260509095519 | 15 | 173 | 4.8 | 11.3 | 0.00 | 0.00 | 0.00 | 58 | 1011.0 |